Location: Calvin Observatory
(42.9309°N, 85.5886°W)
Time: 03:47:50
(UTC-04:00)

ISS - Visible Passes

Search period start: 01 August 2014 00:00
Search period end: 11 August 2014 00:00
Orbit: 411 x 419 km, 51.6° (Epoch: 01 August)

Date Brightness Start Highest point End Pass type
(mag) Time Alt. Az. Time Alt. Az. Time Alt. Az.
01 Aug -0.4 02:55:45 15° NNW 02:57:07 18° N 02:59:33 10° NE visible
01 Aug -1.4 04:31:28 10° NW 04:34:33 33° NNE 04:37:38 10° E visible
02 Aug -0.3 02:09:02 16° NNE 02:09:02 16° NNE 02:10:28 10° NE visible
02 Aug -1.0 03:42:41 10° NW 03:45:33 25° NNE 03:48:26 10° ENE visible
02 Aug -3.4 05:19:11 10° WNW 05:22:33 75° SW 05:25:54 10° SE visible
02 Aug -2.0 22:02:33 10° S 22:05:11 22° SE 22:07:49 10° E visible
02 Aug -2.3 23:38:25 10° WSW 23:41:08 45° WNW 23:41:08 45° WNW visible
03 Aug -0.7 02:56:18 21° N 02:56:31 21° NNE 02:59:11 10° ENE visible
03 Aug -2.9 04:30:20 10° NW 04:33:42 67° NNE 04:37:02 10° ESE visible
03 Aug -3.3 22:49:28 10° WSW 22:52:47 83° NNW 22:56:09 10° NE visible
04 Aug -0.8 00:27:09 10° WNW 00:29:53 23° NNW 00:29:58 23° NNW visible
04 Aug -1.5 03:46:03 29° ENE 03:46:03 29° ENE 03:48:00 10° E visible
04 Aug -2.4 05:19:14 15° W 05:21:23 28° SW 05:24:17 10° SSE visible
04 Aug -3.3 22:00:41 10° SW 22:03:57 58° SE 22:07:15 10° ENE visible
04 Aug -1.2 23:37:54 10° W 23:40:51 28° NNW 23:43:47 10° NE visible
05 Aug -0.1 01:15:56 10° NW 01:16:40 13° NW 01:16:40 13° NW visible
05 Aug -1.8 22:48:42 10° W 22:51:50 38° NNW 22:55:00 10° NE visible
06 Aug -0.5 00:26:47 10° NW 00:29:13 18° N 00:29:46 18° N visible
06 Aug -2.6 21:59:36 10° WSW 22:02:53 56° NNW 22:06:11 10° NE visible
06 Aug -0.6 23:37:33 10° WNW 23:40:07 20° N 23:42:38 10° NE visible
07 Aug 0.0 01:15:04 10° NW 01:15:29 12° NW 01:15:29 12° NW visible
07 Aug -0.9 22:48:15 10° WNW 22:51:01 23° NNW 22:53:48 10° NE visible
08 Aug -0.5 00:26:06 10° NW 00:28:14 18° N 00:28:14 18° N visible
08 Aug -1.3 21:58:59 10° W 22:01:57 29° NNW 22:04:57 10° NE visible
08 Aug -0.6 23:37:02 10° NW 23:39:25 18° N 23:40:57 14° NNE visible
09 Aug -0.6 22:47:50 10° NW 22:50:17 19° N 22:52:44 10° NE visible
10 Aug -0.4 00:25:03 10° NW 00:26:29 18° NNW 00:26:29 18° NNW visible
10 Aug -0.7 21:58:32 10° WNW 22:01:08 21° N 22:03:45 10° NE visible
10 Aug -0.9 23:36:08 10° NW 23:38:42 20° N 23:39:09 19° NNE visible
